Погода в Сёрхьюсене

Норвегия     69°47′05″N   20°57′06″E
темп.,
°C
ветер,
м/с
пор.,
м/с
влажн.,
%
обл.,
%
осадки,
мм/ч
давл.,
гПа
погр.,
м
15 июня, вт
вт1523:00+4ссз108054 0.0 1000208
02:00+4ссв118445 0.0 999132
05:00+5с228167 0.0 996235
08:00+4ссз448498 0.0 995471
11:00+4ссз4489100 0.1 996550
14:00+3ссз4598100 0.5 998416
17:00+3сз459598 0.9 1000343
20:00+2зсз7138898 1.4 10021202
16 июня, ср
ср1623:00+2зсз4109299 1.1 10041068
02:00+2зсз388895 2.1 1005752
05:00+3зсз397398 0.3 10051212
08:00+3з4107082 0.8 10071371
11:00+4з5116187 0.3 10081621
14:00+5з7116298 0.6 10091565
17:00+4зсз6116798 0.6 10101524
20:00+4зсз5106892 1.1 10111486
17 июня, чт
чт1723:00+3зсз377177 0.3 1013904
02:00+2з227885 0.4 1014134
05:00+3ююз11695 0.1 1014416
08:00+5з11555 0.1 1013899
11:00+8зсз12471 0.0 10121059
14:00+10ссз334588 0.0 1011953
17:00+7сз326199 0.0 1012453
20:00+7ююз2368100 0.1 1012232
18 июня, пт
пт1823:00+8ю128260 0.7 1012134
02:00+9ююз337490 0.9 101056
05:00+10юз126768 0.8 1010183
08:00+11з2358100 1.0 1009864
11:00+11зсз2355100 0.2 10081091
14:00+10ссз3268100 0.9 1008554
17:00+8ссз338593 0.7 1009433
20:00+7зюз1284100 4.9 1009294
19 июня, сб
сб1923:00+7зсз378479 1.0 1010683
02:00+7зсз3683100 1.5 1012655
05:00+4сз6798100 1.3 1017927
08:00+3сз4597100 2.9 1020563
11:00+3ссз329296 0.1 1022444
14:00+5ссв118173 0.1 1022549
17:00+8ссв226616 0.0 1020723
20:00+8с22685 0.0 1019240